"Pseudo-MPEC" for CEJDH02

Created 2026 Apr 16 22:35:08 UT using Find_Orb

Click here for an explanation of pseudo-MPECs

 
 Astrometry: 
     CEJDH02*1C2026 04 16.26587611 54 39.992+10 20 09.24   ~4G75 21.04GVNEOCPG96
     CEJDH02 1C2026 04 16.27114811 54 42.253+10 19 27.34   ~4G75 21.22GVNEOCPG96
     CEJDH02 1C2026 04 16.27644011 54 44.482+10 18 47.05   ~4G75 20.97GVNEOCPG96
     CEJDH02 1C2026 04 16.28168411 54 46.732+10 18 06.70   ~4G75 20.88GVNEOCPG96
     CEJDH02  C2026 04 16.29649111 54 52.841+10 16 10.02   ~4G7o 20.8 GWNEOCPH01
     CEJDH02  C2026 04 16.30009911 54 54.380+10 15 42.39   ~4G7o 20.7 GWNEOCPH01
     CEJDH02  C2026 04 16.30983711 54 58.566+10 14 27.22   ~4G7o 21.0 GWNEOCPH01
     CEJDH02  C2026 04 16.31904611 55 02.504+10 13 16.40   ~4G7o 21.1 GWNEOCPH01
     CEJDH02 1C2026 04 16.39016211 55 33.226+10 04 14.12   ~4G9o 20.89GVNEOCPI52
     CEJDH02 1C2026 04 16.39271711 55 34.327+10 03 54.97   ~4G9o       VNEOCPI52
     CEJDH02 1C2026 04 16.39527711 55 35.432+10 03 35.39   ~4G9o 21.19GVNEOCPI52
     CEJDH02 1C2026 04 16.39784011 55 36.563+10 03 15.01   ~4G9o       VNEOCPI52
     CEJDH02 IB2026 04 16.90902311 59 19.64 +09 00 54.1    ~4GMZ       VNEOCPL01
     CEJDH02 IB2026 04 16.91751711 59 22.95 +08 59 54.7    ~4GMZ 20.8 GVNEOCPL01
     CEJDH02 KB2026 04 16.92622911 59 26.30 +08 58 53.7    ~4GMZ 21.2 GVNEOCPL01

Station data:
(G96) Mt. Lemmon Survey  (N32.442729 W110.788720)  US/Arizona.  Observer E.
   J. Christensen. Measurers T. Beuden, V. F. Carvajal, D. Fay, J. B.
   Fazekas, D. C. Fuls, A. R. Gibbs, A. D. Grauer, H. Gröller, J. K. Hogan,
   R. A. Kowalski, S. M. Larson, G. J. Leonard, D. Rankin, R. L. Seaman, F.
   C. Shelly, K. W. Wierzchoś. 1.5-m reflector + 10K CCD.
(H01) Magdalena Ridge Observatory, Socorro  (N33.984833 W107.189333)  US/New
   Mexico.  Observers W. H. Ryan, E. V. Ryan. Measurer W. H. Ryan. 2.4-m
   f/8.9 reflector + CCD.
(I52) Steward Observatory, Mt. Lemmon Station  (N32.442570 W110.788920)
   US/Arizona. Measurers T. Beuden, V. F. Carvajal, D. Fay, J. B. Fazekas, D.
   C. Fuls, A. R. Gibbs, A. D. Grauer, H. Gröller, J. K. Hogan, R. A.
   Kowalski, S. M. Larson, G. J. Leonard, D. Rankin, R. L. Seaman, F. C.
   Shelly, K. W. Wierzchoś. 1.0-m prime focus + CCD.
(L01) Višnjan Observatory, Tičan  (N45.290897 E13.749300)  Croatia.
   Observers K. Korlević, L. Poropat. Measurer K. Korlevic. 1.0-m f/2.9
   reflector + CCD.

Orbital elements:  CEJDH02
   Perihelion 2026 Feb 20.747929 +/- 0.24 TT = 17:57:01.0 (JD 2461092.247929)
Epoch 2026 Apr 17.0 TT = JDT 2461147.5   Earth MOID: 0.0236   Ve: 0.0469
M  19.637906072 +/- 0.54            Ma: 0.0025                   AutoNEOCP
n   0.355423890 +/- 0.00831         Peri.   87.776804 +/- 0.59
a   1.973808304 +/- 0.0308          Node    36.596517 +/- 0.12
e   0.61365303 +/- 0.00567          Incl.    3.776359 +/- 0.057
P   2.77305                H 24.57  G  0.15   U  9.5
q 0.762574844 +/- 0.00338    Q 3.185041764 +/- 0.0605     (J2000 ecliptic)
From 15 observations 2026 Apr. 16 (15.8 hr); mean residual 0".27
Residuals in arcseconds: 
260416 G96  .15+  .63+    260416 H01  .09-  .01-    260416 I52  .06-  .37+    
260416 G96  .23+  .56-    260416 H01  .09+  .19-    260416 I52  .30+  .46-    
260416 G96  .28-  .00     260416 H01  .08-  .15-    260416 L01  .26+  .39-    
260416 G96  .16-  .10+    260416 I52  .04-  .07+    260416 L01  .21+  .02+    
260416 H01  .02+  .18-    260416 I52  .06-  .42+    260416 L01  .47-  .33+    

Ephemerides (geocentric):
Date (UTC) HH   RA             Dec           delta  r     elong  mag " sig PA
---- --------  ------------   ------------  ------ ------ -----  --- --------
2026 04 16 23  11 59 40.284   +08 55 53.77  .11514 1.1038 148.8 21.3 .548   4
2026 04 17 00  11 59 57.309   +08 51 03.25  .11550 1.1041 148.8 21.3 .641 176
2026 04 17 01  12 00 14.229   +08 46 14.41  .11586 1.1045 148.9 21.3 .754 169
2026 04 17 02  12 00 31.043   +08 41 27.22  .11621 1.1049 149.0 21.4 .883 164
2026 04 17 03  12 00 47.753   +08 36 41.69  .11657 1.1053 149.0 21.4 1.03 160
2026 04 17 04  12 01 04.359   +08 31 57.80  .11693 1.1057 149.1 21.4 1.19 157
2026 04 17 05  12 01 20.863   +08 27 15.54  .11729 1.1061 149.2 21.4 1.36 155
2026 04 17 06  12 01 37.265   +08 22 34.89  .11765 1.1065 149.2 21.4 1.54 153
2026 04 17 07  12 01 53.567   +08 17 55.85  .11802 1.1069 149.3 21.4 1.73 151
2026 04 17 08  12 02 09.770   +08 13 18.40  .11838 1.1073 149.3 21.4 1.94 150
2026 04 17 09  12 02 25.874   +08 08 42.52  .11874 1.1077 149.4 21.4 2.15 148
2026 04 17 10  12 02 41.879   +08 04 08.22  .11910 1.1080 149.5 21.4 2.38 147
2026 04 17 11  12 02 57.788   +07 59 35.47  .11947 1.1084 149.5 21.4 2.61 147
2026 04 17 12  12 03 13.601   +07 55 04.27  .11983 1.1088 149.6 21.4 2.86 146
2026 04 17 13  12 03 29.319   +07 50 34.60  .12019 1.1092 149.6 21.4 3.11 145
2026 04 17 14  12 03 44.943   +07 46 06.46  .12056 1.1096 149.7 21.4 3.37 145
2026 04 17 15  12 04 00.473   +07 41 39.83  .12092 1.1100 149.7 21.4 3.64 144
2026 04 17 16  12 04 15.911   +07 37 14.69  .12129 1.1104 149.8 21.4 3.92 144
2026 04 17 17  12 04 31.257   +07 32 51.05  .12165 1.1108 149.9 21.4 4.21 144
2026 04 17 18  12 04 46.512   +07 28 28.88  .12202 1.1112 149.9 21.4 4.51 143
2026 04 17 19  12 05 01.677   +07 24 08.18  .12238 1.1116 150.0 21.4 4.81 143
2026 04 17 20  12 05 16.753   +07 19 48.94  .12275 1.1119 150.0 21.5 5.12 143
2026 04 17 21  12 05 31.740   +07 15 31.14  .12312 1.1123 150.1 21.5 5.44 142
2026 04 17 22  12 05 46.640   +07 11 14.78  .12349 1.1127 150.1 21.5 5.77 142
2026 04 17 23  12 06 01.452   +07 06 59.84  .12385 1.1131 150.2 21.5 6.10 142
2026 04 18 00  12 06 16.179   +07 02 46.32  .12422 1.1135 150.2 21.5 6.44 142
2026 04 18 01  12 06 30.820   +06 58 34.20  .12459 1.1139 150.3 21.5 6.79 142
2026 04 18 02  12 06 45.377   +06 54 23.47  .12496 1.1143 150.3 21.5 7.14 142
2026 04 18 03  12 06 59.850   +06 50 14.13  .12533 1.1147 150.4 21.5 7.50 142
2026 04 18 04  12 07 14.240   +06 46 06.16  .12570 1.1151 150.4 21.5 7.87 141
2026 04 18 05  12 07 28.547   +06 41 59.55  .12607 1.1155 150.5 21.5 8.24 141
2026 04 18 06  12 07 42.773   +06 37 54.29  .12644 1.1159 150.5 21.5 8.62 141
2026 04 18 07  12 07 56.917   +06 33 50.38  .12681 1.1162 150.6 21.5 9.01 141
2026 04 18 08  12 08 10.982   +06 29 47.80  .12718 1.1166 150.6 21.5 9.40 141
2026 04 18 09  12 08 24.967   +06 25 46.55  .12756 1.1170 150.7 21.5 9.80 141
2026 04 18 10  12 08 38.873   +06 21 46.61  .12793 1.1174 150.7 21.5 10.2 141
2026 04 18 11  12 08 52.701   +06 17 47.97  .12830 1.1178 150.8 21.5 10.6 141
2026 04 18 12  12 09 06.451   +06 13 50.63  .12867 1.1182 150.8 21.5 11.0 141
2026 04 18 13  12 09 20.125   +06 09 54.57  .12905 1.1186 150.8 21.5 11.4 141
2026 04 18 14  12 09 33.723   +06 05 59.78  .12942 1.1190 150.9 21.6 11.9 141
2026 04 18 15  12 09 47.245   +06 02 06.27  .12980 1.1194 150.9 21.6 12.3 141
2026 04 18 16  12 10 00.692   +05 58 14.01  .13017 1.1198 151.0 21.6 12.7 141
2026 04 18 17  12 10 14.065   +05 54 23.00  .13055 1.1202 151.0 21.6 13.2 140
2026 04 18 18  12 10 27.364   +05 50 33.23  .13092 1.1205 151.1 21.6 13.6 140
2026 04 18 19  12 10 40.591   +05 46 44.69  .13130 1.1209 151.1 21.6 14.1 140
2026 04 18 20  12 10 53.745   +05 42 57.37  .13167 1.1213 151.1 21.6 14.5 140
2026 04 18 21  12 11 06.828   +05 39 11.26  .13205 1.1217 151.2 21.6 15.0 140
2026 04 18 22  12 11 19.839   +05 35 26.35  .13243 1.1221 151.2 21.6 15.4 140